Location: Danville Conservation Area
(38.8674°N, 91.5143°W)
Time: 16:59:15
(UTC-06:00)

ISS - Pass Details

Date: 08 December 2021
Orbit: 413 x 422 km, 51.6° (Epoch: 20 January)

Event Time Altitude Azimuth Distance (km) Brightness Sun altitude
Rises 18:40:06 0° 292° (WNW) 2,377 1.0 -21.9°
Reaches altitude 10° 18:42:51 10° 268° (W) 1,505 0.1 -22.5°
Maximum altitude 18:44:52 15° 231° (SW) 1,226 -0.6 -22.8°
Drops below altitude 10° 18:46:54 10° 194° (SSW) 1,493 -0.7 -23.2°
Enters shadow 18:48:31 - 177° (S) 1,973 -0.3 -23.5°
